Location: Wildlife_Club
(35.6000°N, 81.4330°W)
Time: 13:59:54
(UTC-04:00)

Iridium 56 - Visible Passes

Search period start: 21 August 2014 00:00
Search period end: 31 August 2014 00:00
Orbit: 776 x 779 km, 86.4° (Epoch: 21 August)

Date Brightness Start Highest point End Pass type
(mag) Time Alt. Az. Time Alt. Az. Time Alt. Az.
21 Aug 8.7 20:27:49 10° NW 20:31:02 17° W 20:34:14 10° WSW visible
24 Aug 9.3 20:29:40 10° WNW 20:30:55 11° WNW 20:32:11 10° W visible
25 Aug 8.7 06:01:18 10° ESE 06:04:13 15° E 06:07:09 10° NE visible
28 Aug 8.3 06:00:11 10° SE 06:04:09 23° E 06:08:08 10° NNE visible
29 Aug 8.8 05:29:17 10° E 05:30:58 12° ENE 05:32:39 10° ENE visible
